Other Surface Observations
Issued by NWS Tucson, AZ

Home | Current Version | Previous Version | Text Only | Print | Product List | Glossary On
Versions: 1 2 3 4 5 6 7 8 9 10 11 12 13 14 15 16 17 18 19 20 21 22 23 24 25 26 27 28 29 30 31 32 33 34 35 36 37 38 39 40 41 42 43 44 45 46 47 48 49 50
514
SXUS55 KTWC 221515
OSOTWC

WEATHER ROUNDUP FOR SOUTHEAST ARIZONA
NATIONAL WEATHER SERVICE TUCSON AZ
815 AM MST FRI SEP 22 2017

AZZ504>506-514-221615-
LOCATION       SKY/WX    TMP DP  RH WIND       PRES   REMARKS
TUCSON         SUNNY     77  40  26 S9        29.86R
DAVIS-MONTHAN  SUNNY     75  38  25 S7        29.84R
CHILDRENS PARK N/A      N/A N/A  28 SE7               PIMA CO DEQ
ALVERNON/22ND  N/A       75 N/A N/A SE4               PIMA CO DEQ
CHERRY/GLENN   N/A      N/A N/A N/A N/A               PIMA CO DEQ
TANGERINE      N/A       74 N/A N/A SE7               PIMA CO DEQ
CONTL RANCH    N/A       76  45  33 SE8               PIMA CO DEQ
GRANT/1ST      N/A       75  40  28 SE4               PIMA CO DEQ
CRAYCROFT/22ND N/A       74  41  30 SE4               PIMA CO DEQ
GOLFLINKS/KOLB N/A       73  41  32 SE4               PIMA CO DEQ
AJO/12TH       N/A       74  41  30 SE7               PIMA CO DEQ
FAIRGROUNDS    N/A       67 N/A N/A SE3               PIMA CO DEQ
SAGUARO        N/A       73  44  35 CALM              *SABINO CYN
SAN CARLOS     N/A       70  40  33 NW3               *SAN CARLOS
GREEN VALLEY   N/A       70  37  30 SW9               PIMA CO DEQ
HORSE CAMP CYN N/A       67  42  40 NE5               *ARAVAIPA CYN
RINCON MTNS    N/A       52  35  53 S3G10             *NR MANNING CAMP
$$

AZZ509>511-221615-
LOCATION       SKY/WX    TMP DP  RH WIND       PRES   REMARKS
SAFFORD        MOSUNNY   75  42  30 E10       29.85R
STRAY HORSE    N/A       55  41  58 SE3               *
TRAIL CABIN    N/A       66  41  40 SE5G11            *N OF GRANVILLE
BLACK HILLS    NOT AVBL
DRY LAKE       N/A       55  35  47 S9G18             *NATANES MTNS
NOON CREEK     N/A       72  36  27 SW7G19            *PINALENO MTNS
COLUMBINE      N/A       46  35  65 SW8G23            *PINALENO MTNS
GUTHRIE        N/A       61  38  43 SW14G24           *SW OF GUTHRIE
$$

AZZ502-503-513-221615-
LOCATION       SKY/WX    TMP DP  RH WIND       PRES   REMARKS
NOGALES        SUNNY     71  45  39 S8        29.93R
SELLS          N/A       72  51  47 S5G10             *
SASABE         N/A       63  50  63 SE3               *ALTAR VLY
HOPKINS        N/A       58  40  52 SE10G20           *SANTA RITA MTNS
CARR CYN       N/A       67  48  51 W3G14             *W OF HEREFORD
$$

AZZ507-508-512-221615-
LOCATION       SKY/WX    TMP DP  RH WIND       PRES   REMARKS
SIERRA VISTA   MOSUNNY   72  43  35 SE10G18   29.97R
DOUGLAS        MOSUNNY   71  49  45 SE8       29.96R
EMPIRE MTNS    NOT AVBL
MULESHOE RANCH N/A       63  37  38 CALM              *PRESERVE
HEADQUARTERS   N/A       71  36  28 W5G11             *CHIRICAHUA MTNS
$$

.............................NOTES.............................
THIS IS AN AUTOMATED COLLECTIVE WITH MINIMAL QUALITY CONTROL.
PIMA CO DEQ SITES HAVE NONSTANDARD WIND SENSOR HEIGHTS.
PIMA CO DEQ SITES DO NOT REPORT WIND GUSTS.
* INDICATES WIND SENSORS LOCATED AT 20 FEET INSTEAD OF 33 FEET.
..............................KEY..............................
SKY/WX - SKY CONDITION/WEATHER
TMP    - TEMPERATURE IN FAHRENHEIT
DP     - DEWPOINT IN FAHRENHEIT
RH     - RELATIVE HUMIDITY IN PERCENT
WIND   - DIRECTION AND SPEED IN MILES PER HOUR (MPH)
VRB    - VARIABLE WIND DIRECTION
PRES   - MEAN SEA LEVEL PRESSURE IN INCHES OF MERCURY
         F - FALLING PRESSURE   R - RISING PRESSURE
         S - STEADY PRESSURE
VSB    - VISIBILITY IN MILES
HX     - HEAT INDEX IN FAHRENHEIT
WCI    - WIND CHILL INDEX IN FAHRENHEIT
N/A    - NOT AVAILABLE
AFB    - AIR FORCE BASE
         DAVIS-MONTHAN IS DAVIS-MONTHAN AIR FORCE BASE
CYN    - CANYON
MTNS   - MOUNTAINS
NCA    - NATIONAL CONSERVATION AREA
NR     - NEAR
VLY    - VALLEY
CONTL  - CONTINENTAL
PIMA CO DEQ - PIMA COUNTY DEPT OF ENVIRONMENTAL QUALITY



USA.gov is the U.S. government's official web portal to all federal, state and local government web resources and services.